[[{"header":{"parameterUnit":"m.s-1","parameterCategory":1,"la1":30.2991,"la2":30.254,"lo1":-89.0895,"lo2":-89.0444,"dy":0.0017,"dx":0.0017,"nx":28,"ny":28,"refTime":"2024-07-04T09:00:00:Z","depth":0,"parameterNumber":2,"parameterNumberName":"U-component_of_WINDS"},"data":[0,0,0,0,0,0,0,0,0,0,0,0,0,0,0,0,0,0,0,0,0,0,0,0,0,0,0,0,0,0,0,0,0,0,0,0,0,0,0,0,0,0,0,0,0,0,0,0,0,0,0,0,0,0,0,0,0,0,1.9003,1.9004,0,1.9112,1.9113,1.9114,1.913,1.9129,1.9128,1.9127,1.9243,1.9247,1.9251,0,0,0,0,0,0,0,0,0,0,0,0,0,1.8812,1.8816,1.9003,1.9004,1.9006,1.9112,1.9113,1.9115,1.9131,1.9129,1.9128,1.9127,1.9242,1.9246,1.9251,0,0,0,0,0,0,0,0,0,0,0,0,0,1.8905,1.8817,1.9003,1.9026,1.9029,1.9111,1.9113,1.9115,1.9131,1.9129,1.9128,1.9126,1.924,1.9246,1.9252,1.9319,0,0,1.927,1.9273,0,0,0,0,0,0,0,0,1.89,1.8912,1.9021,1.9025,1.9028,1.9106,1.9088,1.9184,1.9131,1.9092,1.9127,1.9126,1.9199,1.9208,1.9232,1.9325,1.933,1.9271,1.9274,1.9277,1.9279,0,0,0,0,0,0,0,1.8894,1.8908,1.9046,1.9023,1.9027,1.9033,1.9044,1.9106,1.9153,1.9096,1.9097,1.911,1.92,1.9226,1.9235,1.9331,1.9271,1.9276,1.928,1.9282,1.9485,1.9486,0,0,0,0,0,0,1.8882,1.8902,1.9043,1.9049,1.8959,1.9037,1.905,1.9083,1.9152,1.9161,1.9111,1.911,1.9217,1.9228,1.9239,1.9322,1.9277,1.9283,1.9286,1.9483,1.9485,1.9487,0,0,0,0,0,0,1.8878,1.8895,1.9038,1.8976,1.8995,1.9042,1.9078,1.9086,1.9111,1.9164,1.9172,1.9128,1.9216,1.923,1.9299,1.9326,1.9285,1.9291,1.9481,1.9484,1.9486,1.9489,0,0,0,0,0,0,1.8873,1.8893,1.8918,1.8977,1.8998,1.9095,1.908,1.9089,1.9121,1.9121,1.9182,1.9191,1.9216,1.929,1.9305,1.9334,1.9295,1.9479,1.9482,1.9485,1.9487,1.9491,1.9496,0,0,0,0,0,1.8866,1.8916,1.8919,1.8936,1.903,1.9097,1.9109,1.9136,1.9123,1.9149,1.9183,1.9189,1.9321,1.9297,1.9314,1.9345,1.9477,1.9481,1.9485,1.9485,1.9491,1.9495,0,0,0,0,0,0,1.886,1.8924,1.8929,1.8999,1.9042,1.9099,1.9133,1.9141,1.919,1.9188,1.922,1.9234,1.93,1.933,1.9301,1.9414,1.9398,1.9406,1.9392,1.9398,1.9402,1.9394,1.93,0,0,0,0,0,1.8867,1.8914,1.8968,1.9025,1.9046,1.9086,1.9116,1.9132,1.9179,1.9198,1.9236,1.9283,1.9334,1.9368,1.9419,1.9491,1.9505,1.9521,1.9526,1.9529,1.9535,1.9576,1.9584,1.95,1.95,1.95,0,0,1.8882,1.8922,1.8951,1.9024,1.906,1.9109,1.9101,1.9154,1.9191,1.9206,1.9272,1.9303,1.9356,1.9427,1.946,1.9454,1.9561,1.9534,1.9537,1.9541,1.9581,1.9589,1.9596,1.9503,1.9502,1.9502,0,0,1.8934,1.8969,1.902,1.9056,1.9109,1.9135,1.9148,1.9204,1.9224,1.9291,1.9303,1.9349,1.9437,1.9475,1.9506,1.9572,1.958,1.9588,1.9611,1.965,1.9657,1.9663,1.9686,1.9694,1.9594,1.9594,1.9594,0,1.8946,1.9019,1.9046,1.9097,1.913,1.9145,1.9197,1.9231,1.9299,1.9321,1.9313,1.9424,1.9462,1.9541,1.9557,1.9582,1.9597,1.9581,1.9654,1.966,1.9666,1.9689,1.9697,1.9595,1.9595,1.9595,1.9595,0,1.9031,1.9082,1.9117,1.9181,1.9217,1.9269,1.9304,1.9338,1.9352,1.9379,1.9447,1.9493,1.9553,1.9573,1.9587,1.9655,1.9649,1.9647,1.9631,1.9674,1.9696,1.9705,1.9596,1.9596,1.9595,1.9595,0,0,1.9082,1.9159,1.9172,1.9201,1.9261,1.9302,1.9355,1.9412,1.9441,1.9488,1.9533,1.9608,1.9606,1.9641,1.966,1.9694,1.9743,1.9688,1.969,1.9696,1.982,1.9821,1.9831,1.9749,1.9751,1.9752,1.9816,0,1.914,1.9234,1.9259,1.9339,1.9387,1.9402,1.9448,1.9491,1.9518,1.9563,1.9594,1.9646,1.964,1.9661,1.9696,1.973,1.9769,1.9726,1.9792,1.9794,1.9777,1.9842,1.9843,1.9901,1.9825,1.9826,1.9827,0,1.9221,1.9268,1.9352,1.9406,1.9427,1.9468,1.9523,1.9565,1.9615,1.9632,1.9671,1.9687,1.9744,1.9725,1.9804,1.9775,1.9804,1.9824,1.9827,1.9834,1.9813,1.985,1.992,1.9929,1.9841,1.984,1.9839,0,1.9249,1.9333,1.9394,1.9419,1.9484,1.9512,1.9541,1.9588,1.9621,1.967,1.9691,1.9746,1.9776,1.9819,1.9849,1.9833,1.9926,1.991,1.9943,1.9942,1.9961,1.9959,2.0036,1.998,1.998,1.998,1.998,0,1.9311,1.9362,1.9408,1.9445,1.9503,1.9532,1.9589,1.9618,1.966,1.9705,1.9722,1.9763,1.9801,1.9848,1.9873,1.9934,1.9948,1.9964,1.997,1.9962,1.996,1.9981,1.9978,1.9982,1.9982,1.9981,1.9981,0,1.9352,1.9384,1.9452,1.9508,1.9523,1.9563,1.9611,1.9649,1.9677,1.9732,1.9747,1.9792,1.9847,1.9882,1.9954,1.997,2.0038,2.0043,2.0021,2.0023,2.0053,2.0049,2.0145,2.0159,2.0095,2.0096,2.0096,0,1.9389,1.9428,1.9488,1.9518,1.9547,1.9595,1.9629,1.966,1.9694,1.9753,1.9784,1.984,1.9887,1.9976,2.0015,2.007,2.0076,2.0106,2.0085,2.0075,2.0076,2.0073,2.0077,2.0109,2.011,2.011,2.0111,0,1.9451,1.9465,1.9512,1.9565,1.9604,1.9648,1.9691,1.9715,1.9754,1.9792,1.9848,1.9885,1.9957,2.0013,2.0071,2.0102,2.0113,2.0117,2.0127,2.012,2.0105,2.0113,2.003,2.0115,2.0114,2.0114,2.0114,2.0114,1.9491,1.9526,1.9574,1.9626,1.9661,1.9701,1.9739,1.9772,1.9819,1.9879,1.9895,1.9955,2.0004,2.0083,2.0115,2.0162,2.0158,2.0173,2.0177,2.018,2.018,2.0098,2.0173,2.0173,2.0173,2.0173,2.0173,0,1.9553,1.9585,1.9632,1.9692,1.9733,1.9739,1.9787,1.9821,1.9873,1.9917,1.9962,2.0028,2.0082,2.0126,2.0182,2.0212,2.0219,2.0226,2.0224,2.0231,2.0181,2.0166,2.022,2.022,2.022,2.022,2.022,2.022,1.9591,1.9651,1.9671,1.9749,1.9781,1.9838,1.9865,1.9903,1.9938,2.0009,2.0055,2.0082,2.0126,2.0186,2.0237,2.0248,2.0268,2.0274,2.0287,2.0239,2.0234,2.0229,2.0215,2.0279,2.0279,2.0333,2.0333,2.0333]},{"header":{"parameterUnit":"m.s-1","parameterCategory":1,"la1":30.2991,"la2":30.254,"lo1":-89.0895,"lo2":-89.0444,"dy":0.0017,"dx":0.0017,"nx":28,"ny":28,"refTime":"2024-07-04T09:00:00:Z","depth":0,"parameterNumber":3,"parameterNumberName":"V-component_of_WINDS"},"data":[0,0,0,0,0,0,0,0,0,0,0,0,0,0,0,0,0,0,0,0,0,0,0,0,0,0,0,0,0,0,0,0,0,0,0,0,0,0,0,0,0,0,0,0,0,0,0,0,0,0,0,0,0,0,0,0,0,0,4.1316,4.1316,0,4.133,4.133,4.133,4.1328,4.1328,4.1328,4.1328,4.134,4.134,4.1341,0,0,0,0,0,0,0,0,0,0,0,0,0,4.1284,4.1285,4.1316,4.1316,4.1317,4.133,4.133,4.133,4.1328,4.1328,4.1328,4.1328,4.134,4.134,4.1341,0,0,0,0,0,0,0,0,0,0,0,0,0,4.1298,4.1285,4.1316,4.1317,4.1318,4.133,4.133,4.133,4.1329,4.1328,4.1328,4.1328,4.1339,4.134,4.1341,4.1353,0,0,4.1343,4.1344,0,0,0,0,0,0,0,0,4.1297,4.1299,4.1317,4.1317,4.1317,4.1327,4.1323,4.1338,4.1329,4.1324,4.1328,4.1327,4.1336,4.1337,4.134,4.1353,4.1354,4.1343,4.1344,4.1344,4.1344,0,0,0,0,0,0,0,4.1296,4.1299,4.1322,4.1317,4.1318,4.1316,4.1317,4.1326,4.1332,4.1325,4.1325,4.1326,4.1336,4.1339,4.134,4.1354,4.1343,4.1344,4.1345,4.1345,4.1374,4.1374,0,0,0,0,0,0,4.1295,4.1298,4.1321,4.1322,4.1306,4.1317,4.1318,4.1324,4.1332,4.1332,4.1327,4.1326,4.1338,4.1339,4.1341,4.1353,4.1344,4.1345,4.1345,4.1374,4.1374,4.1375,0,0,0,0,0,0,4.1295,4.1298,4.1321,4.131,4.1313,4.1318,4.1324,4.1325,4.1328,4.1333,4.1334,4.1329,4.1338,4.134,4.1349,4.1354,4.1345,4.1346,4.1374,4.1374,4.1374,4.1379,0,0,0,0,0,0,4.1294,4.1297,4.1303,4.131,4.1313,4.133,4.1325,4.1325,4.133,4.133,4.1336,4.1337,4.1338,4.1348,4.135,4.1354,4.1347,4.1373,4.1374,4.1374,4.1378,4.138,4.1381,0,0,0,0,0,4.1293,4.1304,4.1303,4.1306,4.132,4.133,4.1332,4.1334,4.133,4.1335,4.1338,4.1336,4.1353,4.1349,4.1351,4.1356,4.1373,4.1374,4.1374,4.1378,4.1379,4.138,0,0,0,0,0,0,4.1297,4.1305,4.1304,4.1318,4.1324,4.133,4.1336,4.1336,4.1342,4.1341,4.1342,4.1343,4.1353,4.1355,4.1351,4.1366,4.1362,4.1363,4.1364,4.1366,4.1367,4.1365,4.1347,0,0,0,0,0,4.13,4.1308,4.1314,4.1325,4.1328,4.1332,4.1336,4.1337,4.1342,4.1344,4.1348,4.1352,4.1358,4.1362,4.1368,4.1379,4.1379,4.1383,4.1384,4.1385,4.1386,4.1389,4.1391,4.1377,4.1377,4.1377,0,0,4.1305,4.131,4.1315,4.1326,4.1331,4.1338,4.1334,4.1342,4.1347,4.1345,4.1354,4.1357,4.1362,4.1371,4.1376,4.1374,4.1389,4.1386,4.1386,4.1387,4.139,4.1392,4.1393,4.1377,4.1377,4.1377,0,0,4.1318,4.1324,4.1333,4.1337,4.1343,4.1345,4.1347,4.1353,4.1355,4.1364,4.1362,4.1368,4.1378,4.1381,4.1384,4.1396,4.1394,4.1398,4.1403,4.1407,4.1408,4.1409,4.1411,4.1413,4.1399,4.1399,4.1399,0,4.1323,4.1335,4.1337,4.1345,4.1349,4.1348,4.1356,4.136,4.1368,4.137,4.1368,4.138,4.1383,4.1392,4.1395,4.1398,4.1399,4.1397,4.1408,4.1409,4.1409,4.1412,4.1413,4.1399,4.1399,4.1399,4.1399,0,4.1341,4.1349,4.1355,4.1362,4.1367,4.1375,4.1377,4.1381,4.1381,4.1382,4.139,4.1394,4.14,4.1402,4.1402,4.1411,4.1409,4.1407,4.1403,4.1411,4.1413,4.1414,4.1399,4.1399,4.1399,4.1399,0,0,4.1358,4.1365,4.1367,4.1369,4.1375,4.1381,4.1388,4.1394,4.1396,4.1401,4.1406,4.1414,4.1412,4.1415,4.1415,4.1419,4.1426,4.1416,4.1416,4.1417,4.1433,4.1434,4.1436,4.1425,4.1425,4.1425,4.1433,0,4.137,4.1383,4.1384,4.1396,4.1401,4.14,4.1405,4.1409,4.141,4.1414,4.1416,4.1421,4.1418,4.142,4.1423,4.1424,4.1429,4.1424,4.1428,4.1428,4.1426,4.1437,4.1439,4.1446,4.1434,4.1434,4.1434,0,4.1387,4.1392,4.1404,4.1407,4.1409,4.1415,4.1419,4.1424,4.1427,4.1427,4.143,4.1429,4.1435,4.143,4.1437,4.1433,4.1435,4.1436,4.1436,4.1436,4.1431,4.1436,4.1448,4.1449,4.1436,4.1436,4.1435,0,4.1396,4.1406,4.1413,4.1416,4.142,4.1423,4.1425,4.1428,4.1431,4.1434,4.1436,4.144,4.1442,4.1444,4.1444,4.1441,4.145,4.1446,4.1449,4.1449,4.1451,4.1451,4.1463,4.1454,4.1454,4.1453,4.1453,0,4.1409,4.1416,4.1417,4.1422,4.1429,4.1429,4.1436,4.1437,4.1439,4.1443,4.1442,4.1445,4.1445,4.1448,4.1448,4.1453,4.1454,4.1453,4.1453,4.1453,4.1453,4.1454,4.1453,4.1454,4.1454,4.1454,4.1454,0,4.1421,4.1422,4.143,4.1433,4.1434,4.1439,4.1441,4.1444,4.1445,4.145,4.1451,4.1452,4.1455,4.1455,4.1459,4.1459,4.1464,4.1464,4.1463,4.1463,4.1466,4.1465,4.1478,4.1479,4.147,4.147,4.147,0,4.1429,4.1434,4.1437,4.144,4.1442,4.1446,4.1448,4.1448,4.1451,4.1454,4.1457,4.146,4.1463,4.1468,4.1468,4.1471,4.147,4.1474,4.147,4.147,4.1469,4.1468,4.1468,4.1475,4.1475,4.1475,4.1475,0,4.1442,4.1442,4.1446,4.145,4.1453,4.1456,4.1458,4.146,4.146,4.1463,4.1466,4.1468,4.1472,4.1475,4.1477,4.1478,4.1476,4.1476,4.1477,4.1477,4.1476,4.1475,4.1464,4.1476,4.1476,4.1476,4.1476,4.1476,4.1451,4.1455,4.1457,4.1461,4.1463,4.1465,4.1468,4.1469,4.1472,4.1475,4.1475,4.1478,4.1479,4.1482,4.1483,4.1485,4.1483,4.1485,4.1485,4.1485,4.1485,4.1476,4.1485,4.1485,4.1485,4.1485,4.1485,0,4.1463,4.1464,4.1468,4.1471,4.1474,4.1472,4.1475,4.1477,4.148,4.1482,4.1484,4.1487,4.1489,4.149,4.1491,4.1493,4.1492,4.1493,4.1493,4.1493,4.1487,4.1486,4.1494,4.1494,4.1494,4.1494,4.1494,4.1494,4.147,4.1475,4.1475,4.1481,4.1482,4.1486,4.1487,4.1488,4.1489,4.1493,4.1495,4.1495,4.1496,4.1497,4.1499,4.1499,4.1499,4.1501,4.15,4.1494,4.1493,4.1493,4.1491,4.1501,4.1501,4.1506,4.1506,4.1506]}]]